| time (UTC) | temp C | wind direction | speed KPH | gust KPH | rain 1hr cm | rain 24hr cm | rain mn cm | humidity % | barometer mb |
| 20260902073048 | 16 | 0 | 0.0 | 1.6 | 0.00 | 0.00 | 0.00 | 71 | 1011.6 |
| 20260902071553 | 16 | 0 | 0.0 | 1.6 | 0.00 | 0.00 | 0.00 | 70 | 1011.7 |
| 20260902070101 | 16 | 184 | 0.0 | 4.8 | 0.00 | 0.00 | 0.00 | 70 | 1012.0 |
| 20260902064607 | 16 | 200 | 1.6 | 11.3 | 0.00 | 0.00 | 0.00 | 70 | 1012.0 |
| 20260902063054 | 16 | 0 | 0.0 | 4.8 | 0.00 | 0.00 | 0.00 | 69 | 1012.1 |
| 20260902061558 | 17 | 159 | 0.0 | 8.0 | 0.00 | 0.00 | 0.00 | 69 | 1012.0 |
| 20260902060100 | 17 | 202 | 0.0 | 4.8 | 0.00 | 0.00 | 0.00 | 68 | 1012.0 |
| 20260902054547 | 17 | 193 | 1.6 | 9.7 | 0.00 | 0.00 | 0.00 | 67 | 1012.3 |
| 20260902053059 | 17 | 179 | 1.6 | 8.0 | 0.00 | 0.00 | 0.00 | 67 | 1012.3 |
| 20260902051553 | 17 | 223 | 1.6 | 11.3 | 0.00 | 0.00 | 0.00 | 67 | 1012.2 |
| 20260902050053 | 17 | 211 | 3.2 | 11.3 | 0.00 | 0.00 | 0.00 | 67 | 1012.2 |
| 20260902044557 | 17 | 188 | 6.4 | 11.3 | 0.00 | 0.00 | 0.00 | 67 | 1012.1 |
| 20260902043058 | 17 | 203 | 4.8 | 9.7 | 0.00 | 0.00 | 0.00 | 66 | 1012.0 |
| 20260902041553 | 17 | 219 | 3.2 | 11.3 | 0.00 | 0.00 | 0.00 | 66 | 1012.0 |
| 20260902040054 | 18 | 169 | 3.2 | 14.5 | 0.00 | 0.00 | 0.00 | 65 | 1012.0 |
| 20260902034601 | 18 | 210 | 6.4 | 19.3 | 0.00 | 0.00 | 0.00 | 64 | 1011.9 |
| 20260902033107 | 18 | 243 | 4.8 | 9.7 | 0.00 | 0.00 | 0.00 | 63 | 1011.7 |
| 20260902031557 | 18 | 176 | 3.2 | 14.5 | 0.00 | 0.00 | 0.00 | 63 | 1011.6 |
| 20260902030053 | 18 | 261 | 3.2 | 16.1 | 0.00 | 0.00 | 0.00 | 62 | 1011.6 |
| 20260902024548 | 19 | 227 | 4.8 | 16.1 | 0.00 | 0.00 | 0.00 | 61 | 1011.6 |
| 20260902023052 | 19 | 220 | 3.2 | 11.3 | 0.00 | 0.00 | 0.00 | 60 | 1011.4 |
| 20260902021606 | 19 | 228 | 6.4 | 17.7 | 0.00 | 0.00 | 0.00 | 59 | 1011.3 |
| 20260902020050 | 19 | 202 | 3.2 | 17.7 | 0.00 | 0.00 | 0.00 | 58 | 1011.4 |
| 20260902014549 | 20 | 241 | 6.4 | 17.7 | 0.00 | 0.00 | 0.00 | 57 | 1011.3 |
| 20260902013103 | 20 | 206 | 4.8 | 12.9 | 0.00 | 0.00 | 0.00 | 57 | 1011.3 |
| 20260902011548 | 20 | 232 | 9.7 | 17.7 | 0.00 | 0.00 | 0.00 | 56 | 1011.3 |
| 20260902004557 | 20 | 202 | 3.2 | 16.1 | 0.00 | 0.00 | 0.00 | 57 | 1010.9 |
| 20260902003053 | 20 | 286 | 4.8 | 14.5 | 0.00 | 0.00 | 0.00 | 57 | 1010.9 |
| 20260902001546 | 20 | 331 | 4.8 | 11.3 | 0.00 | 0.00 | 0.00 | 57 | 1010.9 |
| 20260902000057 | 21 | 250 | 3.2 | 12.9 | 0.00 | 0.00 | 0.00 | 55 | 1010.9 |
| 20260901234556 | 20 | 314 | 3.2 | 14.5 | 0.00 | 0.00 | 0.00 | 57 | 1011.1 |
| 20260901233051 | 21 | 270 | 4.8 | 16.1 | 0.00 | 0.00 | 0.00 | 57 | 1011.2 |
| 20260901231555 | 21 | 205 | 4.8 | 12.9 | 0.00 | 0.00 | 0.00 | 56 | 1011.3 |
| 20260901230055 | 21 | 279 | 3.2 | 12.9 | 0.00 | 0.00 | 0.00 | 57 | 1011.3 |
| 20260901224559 | 21 | 292 | 3.2 | 9.7 | 0.00 | 0.00 | 0.00 | 56 | 1011.3 |
| 20260901223057 | 20 | 284 | 4.8 | 8.0 | 0.00 | 0.00 | 0.00 | 57 | 1011.4 |
| 20260901221554 | 20 | 210 | 3.2 | 12.9 | 0.00 | 0.00 | 0.00 | 56 | 1011.3 |
| 20260901220059 | 20 | 227 | 1.6 | 9.7 | 0.00 | 0.00 | 0.00 | 57 | 1011.4 |
| 20260901214559 | 20 | 263 | 6.4 | 14.5 | 0.00 | 0.00 | 0.00 | 57 | 1011.4 |
| 20260901213100 | 20 | 293 | 8.0 | 14.5 | 0.00 | 0.00 | 0.00 | 58 | 1011.5 |
| 20260901211554 | 19 | 213 | 3.2 | 12.9 | 0.00 | 0.00 | 0.00 | 60 | 1011.6 |
| 20260901210055 | 19 | 296 | 4.8 | 11.3 | 0.00 | 0.00 | 0.00 | 63 | 1011.6 |
| 20260901204550 | 19 | 242 | 6.4 | 12.9 | 0.00 | 0.00 | 0.00 | 63 | 1011.7 |
| 20260901203055 | 19 | 271 | 6.4 | 14.5 | 0.00 | 0.00 | 0.00 | 63 | 1011.7 |
| 20260901201555 | 19 | 276 | 6.4 | 14.5 | 0.00 | 0.00 | 0.00 | 62 | 1011.7 |
| 20260901200108 | 19 | 0 | 4.8 | 11.3 | 0.00 | 0.00 | 0.00 | 63 | 1011.8 |
| 20260901194604 | 18 | 267 | 4.8 | 11.3 | 0.00 | 0.00 | 0.00 | 64 | 1011.9 |
| 20260901193109 | 18 | 231 | 3.2 | 9.7 | 0.00 | 0.00 | 0.00 | 66 | 1012.1 |
| 20260901191607 | 18 | 287 | 4.8 | 9.7 | 0.00 | 0.00 | 0.00 | 66 | 1012.1 |
| 20260901190109 | 18 | 267 | 4.8 | 11.3 | 0.00 | 0.00 | 0.00 | 68 | 1012.3 |
| 20260901184554 | 17 | 223 | 4.8 | 11.3 | 0.00 | 0.00 | 0.00 | 69 | 1012.5 |
| 20260901183053 | 17 | 250 | 4.8 | 9.7 | 0.00 | 0.00 | 0.00 | 69 | 1012.4 |
| 20260901181601 | 17 | 220 | 1.6 | 9.7 | 0.00 | 0.00 | 0.00 | 71 | 1012.4 |
| 20260901180058 | 17 | 261 | 3.2 | 9.7 | 0.00 | 0.00 | 0.00 | 73 | 1012.6 |
| 20260901174554 | 17 | 275 | 3.2 | 11.3 | 0.00 | 0.00 | 0.00 | 74 | 1012.7 |
| 20260901173107 | 16 | 236 | 4.8 | 12.9 | 0.00 | 0.00 | 0.00 | 75 | 1012.6 |
| 20260901171605 | 16 | 168 | 4.8 | 14.5 | 0.00 | 0.00 | 0.00 | 76 | 1012.6 |
| 20260901170057 | 16 | 199 | 3.2 | 14.5 | 0.00 | 0.00 | 0.00 | 76 | 1012.5 |
| 20260901164557 | 16 | 238 | 6.4 | 16.1 | 0.00 | 0.00 | 0.00 | 75 | 1012.4 |
| 20260901163101 | 16 | 223 | 3.2 | 11.3 | 0.00 | 0.00 | 0.00 | 76 | 1012.3 |
| 20260901161559 | 16 | 254 | 4.8 | 12.9 | 0.00 | 0.00 | 0.00 | 76 | 1012.4 |
| 20260901160055 | 16 | 192 | 3.2 | 11.3 | 0.00 | 0.00 | 0.00 | 75 | 1012.3 |
| 20260901154557 | 16 | 222 | 8.0 | 14.5 | 0.00 | 0.00 | 0.00 | 75 | 1012.3 |
| 20260901153054 | 15 | 0 | 0.0 | 6.4 | 0.00 | 0.00 | 0.00 | 76 | 1012.3 |
| 20260901151559 | 15 | 0 | 0.0 | 0.0 | 0.00 | 0.00 | 0.00 | 76 | 1012.1 |
| 20260901144559 | 15 | 0 | 0.0 | 0.0 | 0.00 | 0.00 | 0.00 | 76 | 1012.0 |
| 20260901143110 | 15 | 0 | 0.0 | 3.2 | 0.00 | 0.00 | 0.00 | 76 | 1012.1 |
| 20260901141553 | 15 | 0 | 0.0 | 3.2 | 0.00 | 0.00 | 0.00 | 77 | 1012.0 |
| 20260901140059 | 15 | 0 | 0.0 | 6.4 | 0.00 | 0.00 | 0.00 | 77 | 1012.0 |
| 20260901134558 | 15 | 0 | 0.0 | 4.8 | 0.00 | 0.00 | 0.00 | 78 | 1012.0 |
| 20260901133053 | 15 | 0 | 0.0 | 0.0 | 0.00 | 0.00 | 0.00 | 78 | 1011.9 |
| 20260901131555 | 15 | 0 | 0.0 | 0.0 | 0.00 | 0.00 | 0.00 | 78 | 1011.9 |
| 20260901130058 | 15 | 0 | 0.0 | 0.0 | 0.00 | 0.00 | 0.00 | 78 | 1011.9 |
| 20260901124555 | 15 | 0 | 0.0 | 0.0 | 0.00 | 0.00 | 0.00 | 78 | 1011.8 |
| 20260901123118 | 15 | 0 | 0.0 | 3.2 | 0.00 | 0.00 | 0.00 | 79 | 1011.9 |
| 20260901121605 | 15 | 0 | 0.0 | 0.0 | 0.00 | 0.00 | 0.00 | 79 | 1011.9 |
| 20260901120101 | 14 | 0 | 0.0 | 9.7 | 0.00 | 0.00 | 0.00 | 79 | 1011.9 |
| 20260901114558 | 14 | 0 | 0.0 | 4.8 | 0.00 | 0.00 | 0.00 | 78 | 1011.8 |
| 20260901113104 | 15 | 0 | 0.0 | 3.2 | 0.00 | 0.00 | 0.00 | 78 | 1011.7 |
| 20260901111556 | 15 | 0 | 1.6 | 6.4 | 0.00 | 0.00 | 0.00 | 78 | 1011.8 |
| 20260901110050 | 15 | 153 | 3.2 | 8.0 | 0.00 | 0.00 | 0.00 | 77 | 1011.6 |
| 20260901104600 | 15 | 173 | 4.8 | 11.3 | 0.00 | 0.00 | 0.00 | 76 | 1011.6 |
| 20260901103100 | 15 | 182 | 3.2 | 9.7 | 0.00 | 0.00 | 0.00 | 76 | 1011.5 |
| 20260901101553 | 15 | 188 | 0.0 | 4.8 | 0.00 | 0.00 | 0.00 | 75 | 1011.4 |
| 20260901100113 | 15 | 0 | 3.2 | 8.0 | 0.00 | 0.00 | 0.00 | 74 | 1011.4 |
| 20260901094557 | 16 | 176 | 3.2 | 11.3 | 0.00 | 0.00 | 0.00 | 73 | 1011.3 |
| 20260901093102 | 16 | 0 | 0.0 | 6.4 | 0.00 | 0.00 | 0.00 | 73 | 1011.2 |
| 20260901091604 | 16 | 0 | 0.0 | 3.2 | 0.00 | 0.00 | 0.00 | 73 | 1011.0 |
| 20260901090056 | 16 | 180 | 3.2 | 6.4 | 0.00 | 0.00 | 0.00 | 71 | 1010.8 |
| 20260901084555 | 16 | 0 | 0.0 | 0.0 | 0.00 | 0.00 | 0.00 | 71 | 1010.7 |
| 20260901083105 | 16 | 153 | 0.0 | 6.4 | 0.00 | 0.00 | 0.00 | 69 | 1010.8 |
| 20260901081559 | 17 | 161 | 0.0 | 8.0 | 0.00 | 0.00 | 0.00 | 68 | 1010.8 |
| 20260901080100 | 17 | 170 | 1.6 | 14.5 | 0.00 | 0.00 | 0.00 | 67 | 1010.6 |
| 20260901074554 | 17 | 164 | 3.2 | 16.1 | 0.00 | 0.00 | 0.00 | 65 | 1010.5 |